singapore: the smallest big galery
home » forum » Mods

You are not logged in.

Mods

Topic Replies Views Last post
0 797 2017-02-28 15:00:40 by linrx
wordpress template by gingster
8 20519 2013-07-09 13:04:18 by SPOT LIGHTSA
8 11078 2013-06-10 13:13:10 by political
imagemap_navigation = off by snapfamous
2 5076 2013-06-04 04:57:25 by 5Linx a
paypal integration by bwaje
7 13696 2013-05-01 13:30:28 by Mlm
pagination by eddiejanzer
3 8481 2013-04-17 06:43:04 by Rocky90241
Exif howto by bluemoon
13 24222 2013-01-30 09:37:52 by tentionfree
Moving images via admin by forty two  [ 1 2 3 ]
39 75433 2013-01-21 07:48:47 by amusalin
Full Size Image Popup by quicksketch
14 38963 2013-01-17 08:59:30 by forger
0 2902 2012-12-06 06:18:01 by Mattiy
1 5415 2011-12-01 06:42:20 by dick123
facebook like button? by steliosk
4 7633 2011-08-25 21:28:10 by PrimaFoto
2 5127 2011-08-22 20:50:53 by focale31
1 4207 2011-07-05 07:20:25 by mikeatx
2 5955 2011-06-27 19:47:31 by DC
7 14896 2011-06-22 18:04:53 by pcphotos
9 27845 2011-03-27 17:18:14 by DC
14 28308 2010-01-21 15:48:06 by phyllis01
1 5376 2010-01-20 01:56:41 by DC
upload multiple files by eddiejanzer
9 18584 2009-05-18 17:58:31 by PrimaFoto
0 5119 2009-05-13 05:28:55 by DC
8 22230 2008-11-03 04:22:36 by DC
Posting comments by VSingh
1 6074 2008-10-26 22:02:55 by DC
1 6678 2008-09-12 11:54:11 by crash01
4 10691 2008-07-16 22:38:21 by DC
singapore and wordpress by eddiejanzer
3 9266 2008-03-27 13:13:52 by pavian
31 63877 2008-02-04 06:25:25 by bhchen
12 23590 2008-01-21 08:18:10 by crespowu
3 7150 2008-01-11 16:30:58 by DC
0 3985 2007-12-04 03:48:14 by samrohn